Location: Clatteringshaws Loch
(55.0508°N, 4.2860°W)
Time: 08:46:31
(UTC+01:00)

Daily predictions for brighter satellites

Satellite Brightness Start Highest point End
(mag) Time Altitude Azimuth Time Altitude Azimuth Time Altitude Azimuth
COSMOS 2455 3.0 22:47:53 10° NW 22:53:58 77° NE 23:00:01 10° SE
Spot 4 4.0 22:50:47 10° SSE 22:55:36 70° ENE 23:00:29 10° NNW
Cosmos 2151 4.2 22:51:36 10° SW 22:55:38 44° WNW 22:59:43 10° N
Cosmos 1862 Rocket 3.6 22:51:46 10° N 22:56:09 71° ENE 23:00:28 10° SSE
Meteor 1-4 Rocket 3.3 22:53:46 10° NNW 22:57:29 52° W 23:01:06 10° S
Cosmos 1900 4.4 22:53:02 10° NW 22:58:06 84° NE 23:03:03 10° SE
Lacrosse 4 Rocket 1.8 22:54:54 10° NW 22:59:16 64° NE 23:03:43 10° SE
Cosmos 1703 3.4 22:56:27 10° S 23:00:18 61° E 23:04:11 10° NNE
SL-14 R/B 3.4 22:56:31 10° SSW 23:00:29 82° W 23:04:34 10° N
USA 234 3.5 22:55:45 10° E 23:02:18 77° N 23:08:52 10° W
CARTOSAT-1 3.7 23:00:29 10° SSE 23:04:49 80° WSW 23:09:10 10° NNW
Sich 1 3.2 23:00:38 10° SSW 23:05:03 84° W 23:09:29 10° N
Iridium 2 3.7 23:03:07 10° S 23:06:58 75° E 23:10:50 10° N
Cosmos 1269 Rocket 4.2 23:01:49 10° NNW 23:07:10 71° ENE 23:12:28 10° SE
CZ-4B R/B 3.9 23:02:04 10° NNE 23:07:23 75° WNW 23:12:36 10° SSW
CZ-4 R/B 4.0 23:02:51 10° NNE 23:07:52 89° E 23:12:46 10° SSW
Cosmos 1633 Rocket 3.2 23:04:04 10° SSW 23:08:28 82° WNW 23:12:52 10° N
Cosmos 2058 4.0 23:07:47 10° SSW 23:11:45 47° WNW 23:15:45 10° N
Cosmos 1346 3.7 23:08:53 10° S 23:11:46 40° E 23:14:38 10° NNE
USA 229 DEB 4.0 23:05:01 10° WSW 23:12:00 77° NW 23:19:07 10° NE
USA 229 4.0 23:05:07 10° WSW 23:12:06 77° NW 23:19:13 10° NE
H-2A R/B 2.4 23:07:03 10° S 23:12:25 70° WSW 23:17:54 10° NNW
Cosmos 2227 Rocket 2.8 23:07:59 10° S 23:13:07 37° ESE 23:18:17 10° NE
Cosmos 2333 Rocket 2.8 23:13:46 10° NW 23:19:20 51° WSW 23:24:52 10° S
SL-16 R/B 2.3 23:14:52 10° NNW 23:20:36 84° NE 23:26:19 10° SE
Cosmos 1626 2.4 23:17:25 10° S 23:21:06 55° E 23:24:48 10° NNE
Nadezhda 1 Rocket 4.2 23:15:23 10° NNW 23:21:26 71° W 23:27:31 10° S
GEOS 3 Rocket 3.8 23:19:37 10° ESE 23:24:50 78° NE 23:30:02 10° NW
BREEZE-M DEB (TANK) 4.1 23:09:30 10° W 23:25:57 57° SSW 23:30:14 10° ESE
ATLAS 5 CENTAUR R/B 3.8 23:21:35 10° WNW 23:26:30 37° N 23:31:51 10° ENE
Cosmos 1933 3.5 23:23:23 10° N 23:27:26 65° ENE 23:31:19 11° SSE
NOSS 3-1 (A) 3.6 23:25:13 10° SSW 23:31:12 63° SE 23:37:59 10° NE
Cosmos 1048 Rocket 4.1 23:25:55 10° NNW 23:31:18 85° ENE 23:36:33 11° SSE
Cosmos 1898 Rocket 3.6 23:26:11 10° SSW 23:31:23 85° WNW 23:36:40 10° NNE
SeaSat 1 2.5 23:30:15 10° SE 23:35:12 81° NE 23:40:10 10° NNW
Cosmos 1125 Rocket 4.4 23:32:47 10° SSE 23:37:31 34° ESE 23:42:16 10° NE
Cosmos 1689 Rocket 4.4 23:35:36 10° ESE 23:38:06 20° ENE 23:40:37 10° NNE
Cosmos 2150 Rocket 4.3 23:32:49 10° SSW 23:38:17 77° WNW 23:43:48 10° NNE
Cosmos 2219 Rocket 3.5 23:34:54 10° NW 23:39:42 30° WSW 23:44:30 10° SSW
Cosmos 2297 Rocket 2.7 23:34:53 10° S 23:40:08 41° ESE 23:45:26 10° NE
Cosmos 1745 Rocket 4.2 23:35:37 10° SSW 23:41:49 74° WNW 23:48:01 10° N
ALOS 2 3.6 23:39:52 10° SE 23:43:54 37° ENE 23:47:58 10° N
Cosmos 389 Rocket 2.9 23:40:53 10° N 23:44:26 53° ENE 23:47:30 13° SSE
Cosmos 220 Rocket 4.2 23:44:11 10° SSW 23:48:37 83° WNW 23:53:07 10° NNE
Cosmos 1455 3.5 23:46:10 10° NNW 23:49:38 34° W 23:53:06 10° SSW
Cosmos 1709 Rocket 4.0 23:43:57 10° S 23:50:01 68° E 23:56:06 10° NNE
Okean 1-7 3.1 23:46:45 10° N 23:51:03 67° ENE 23:54:47 13° SSE
Cosmos 1607 4.2 23:45:38 10° NW 23:51:50 72° NE 23:57:59 10° ESE
DMSP B5D2-2 4.2 23:46:57 10° NNE 23:52:13 82° WNW 23:57:25 10° SSW
